HJS-7B (65618 NORAD) Tracking and Keplerian Element Data

This shows tracking and keplerian element data for the satellite.

Feedback or suggestion? Click here.




ElementValue
Catalog65618
NameHJS-7B
Epoch Orbit1345
Epoch Day354.29281152
Epoch Year2025
RAAN305.9141
Inclination49.9999
Eccentricity0.0001458
Argument of Perigee196.9682
Mean Anonmoly163.1174
Mean Motion14.04243993
Decay Rate8.9E-07
L11 65618U 25209B 25354.29281152 .00000089 00000+0 15099-3 0 9996
L22 65618 49.9999 305.9141 0001458 196.9682 163.1174 14.04243993 13454



Live tracking and technical data element details for HJS-7B (NORAD 65618). HJS-7B can be tracked NOW for your location showing map with azimuth and elevation plus other details from your city location.







IsCatalogInMostPopularTable: catalog: 65618, numindb: 6
Update: records affected: 1



GetName: 65618 HJS-7B

Hit Count: updated at: Mon, 20 Apr 2026 10:06:55 GMT